Weather History for Tehachapi, CA

Change the Weather History Date:

Monday, January 6, 2014

  Actual Average Record
Temperature  
Mean Temperature 44 °F -  
Max Temperature 57 °F 48 °F 62 °F (2012)
Min Temperature 30 °F 30 °F 30 °F (2014)
Degree Days  
Heating Degree Days 22    
Moisture  
Dew Point 1 °F    
Average Humidity 19    
Maximum Humidity 34    
Minimum Humidity 10    
Precipitation  
Precipitation 0.00 in - - ()
Sea Level Pressure  
Sea Level Pressure 30.30 in    
Wind  
Wind Speed 11 mph (ESE)    
Max Wind Speed 21 mph    
Max Gust Speed 25 mph    
Visibility 10 miles    
Events      
Averages and records for this station are not official NWS values.
T = Trace of Precipitation, MM = Missing Value Source: NWS Daily Summary

Daily Weather History Graph

Daily Weather History Graph

Search for Another Location

Airport:

Trip Planner

Search our weather history database for the weather conditions in past years. The results will help you decide how hot, cold, wet, or windy it might be!

Date:

Astronomy

Jan. 06, 2014 Rise Set
Actual Time 7:02 AM PST 4:56 PM PST
Civil Twilight 6:34 AM PST 5:24 PM PST
Nautical Twilight 6:03 AM PST 5:56 PM PST
Astronomical Twilight 5:32 AM PST 6:27 PM PST
Moon 10:35 AM PST (1/6) 11:19 PM PST (1/6)
Length of Visible Light 10h 50m
Length of Day
9h 54m
Waxing Crescent, 36% of the Moon is Illuminated
Jan 6
Waxing Crescent
Jan 7
First Quarter
Jan 15
Full
Jan 23
Last Quarter
Jan 30
New

Hourly Weather History & Observations

Time (PST) Temp. Windchill Dew Point Humidity Pressure Visibility Wind Dir Wind Speed Gust Speed Precip Events Conditions
12:15 AM 32.0 °F 24.2 °F -0.4 °F 25% 30.31 in 10.0 mi ESE 9.2 mph - N/A   Clear
12:35 AM 32.0 °F 22.1 °F -0.4 °F 25% 30.30 in 10.0 mi ESE 13.8 mph - N/A   Clear
12:55 AM 33.8 °F 24.8 °F -0.4 °F 23% 30.30 in 10.0 mi ESE 12.7 mph - N/A   Clear
1:15 AM 33.8 °F 24.3 °F -0.4 °F 23% 30.31 in 10.0 mi ESE 13.8 mph - N/A   Clear
1:35 AM 32.0 °F 22.5 °F -0.4 °F 25% 30.31 in 10.0 mi ESE 12.7 mph - N/A   Clear
1:55 AM 32.0 °F 22.5 °F -0.4 °F 25% 30.31 in 10.0 mi ESE 12.7 mph - N/A   Clear
2:15 AM 32.0 °F 23.0 °F -0.4 °F 25% 30.32 in 10.0 mi ESE 11.5 mph - N/A   Clear
2:35 AM 35.6 °F 27.5 °F -0.4 °F 22% 30.32 in 10.0 mi ESE 11.5 mph - N/A   Clear
2:55 AM 32.0 °F 23.6 °F -0.4 °F 25% 30.32 in 10.0 mi ESE 10.4 mph - N/A   Clear
3:15 AM 32.0 °F 23.0 °F -0.4 °F 25% 30.32 in 10.0 mi ESE 11.5 mph - N/A   Clear
3:35 AM 32.0 °F 23.0 °F -0.4 °F 25% 30.32 in 10.0 mi ESE 11.5 mph - N/A   Clear
3:55 AM 32.0 °F 22.5 °F -0.4 °F 25% 30.32 in 10.0 mi ESE 12.7 mph - N/A   Clear
4:15 AM 39.2 °F 30.8 °F -2.2 °F 17% 30.31 in 10.0 mi East 15.0 mph - N/A   Clear
4:35 AM 39.2 °F 31.6 °F -2.2 °F 17% 30.31 in 10.0 mi East 12.7 mph - N/A   Clear
4:55 AM 35.6 °F 28.6 °F -2.2 °F 20% 30.31 in 10.0 mi East 9.2 mph - N/A   Clear
5:15 AM 32.0 °F 24.8 °F -0.4 °F 25% 30.32 in 10.0 mi ESE 8.1 mph - N/A   Clear
5:35 AM 32.0 °F 23.0 °F -0.4 °F 25% 30.32 in 10.0 mi ESE 11.5 mph - N/A   Clear
5:55 AM 41.0 °F 34.7 °F -4.0 °F 15% 30.33 in 10.0 mi East 10.4 mph - N/A   Clear
6:15 AM 41.0 °F 34.3 °F -4.0 °F 15% 30.33 in 10.0 mi East 11.5 mph - N/A   Clear
6:35 AM 39.2 °F 32.0 °F -4.0 °F 16% 30.34 in 10.0 mi East 11.5 mph - N/A   Clear
6:55 AM 39.2 °F 31.6 °F -2.2 °F 17% 30.34 in 10.0 mi East 12.7 mph - N/A   Clear
7:15 AM 39.2 °F 31.6 °F -2.2 °F 17% 30.35 in 10.0 mi East 12.7 mph 19.6 mph N/A   Clear
7:35 AM 39.2 °F 31.6 °F -2.2 °F 17% 30.35 in 9.0 mi ESE 12.7 mph - N/A   Clear
7:55 AM 41.0 °F 33.1 °F -2.2 °F 16% 30.35 in 10.0 mi East 15.0 mph - N/A   Clear
8:15 AM 42.8 °F 35.1 °F -2.2 °F 15% 30.36 in 9.0 mi ESE 16.1 mph - N/A   Clear
8:35 AM 44.6 °F 37.4 °F -2.2 °F 14% 30.36 in 10.0 mi ESE 16.1 mph - N/A   Clear
8:55 AM 46.4 °F 39.2 °F -0.4 °F 14% 30.36 in 10.0 mi ESE 18.4 mph 21.9 mph N/A   Clear
9:15 AM 48.2 °F - -0.4 °F 13% 30.37 in 9.0 mi ESE 17.3 mph 23.0 mph N/A   Clear
9:35 AM 50.0 °F - -0.4 °F 13% 30.37 in 9.0 mi ESE 20.7 mph 25.3 mph N/A   Clear
9:55 AM 50.0 °F - -0.4 °F 13% 30.37 in 9.0 mi ESE 20.7 mph 25.3 mph N/A   Clear
10:15 AM 50.0 °F - -0.4 °F 13% 30.37 in 8.0 mi ESE 18.4 mph 25.3 mph N/A   Clear
10:35 AM 51.8 °F - -0.4 °F 12% 30.36 in 10.0 mi ESE 17.3 mph 21.9 mph N/A   Clear
10:55 AM 53.6 °F - -0.4 °F 11% 30.35 in 9.0 mi SE 18.4 mph 21.9 mph N/A   Clear
11:15 AM 53.6 °F - 1.4 °F 12% 30.34 in 10.0 mi SE 17.3 mph 23.0 mph N/A   Clear
11:35 AM 55.4 °F - 1.4 °F 11% 30.32 in 9.0 mi SE 18.4 mph 24.2 mph N/A   Clear
11:55 AM 53.6 °F - 1.4 °F 12% 30.31 in 9.0 mi SE 16.1 mph 21.9 mph N/A   Clear
12:15 PM 55.4 °F - 1.4 °F 11% 30.30 in 10.0 mi SE 15.0 mph 23.0 mph N/A   Clear
12:35 PM 55.4 °F - 1.4 °F 11% 30.29 in 10.0 mi ESE 12.7 mph 20.7 mph N/A   Clear
12:55 PM 55.4 °F - 1.4 °F 11% 30.29 in 9.0 mi ESE 13.8 mph 19.6 mph N/A   Clear
1:15 PM 55.4 °F - 1.4 °F 11% 30.28 in 10.0 mi ESE 13.8 mph 17.3 mph N/A   Clear
1:35 PM 57.2 °F - 1.4 °F 10% 30.28 in 10.0 mi ESE 11.5 mph 17.3 mph N/A   Clear
1:55 PM 55.4 °F - 1.4 °F 11% 30.28 in 10.0 mi ESE 9.2 mph - N/A   Clear
2:15 PM 55.4 °F - 1.4 °F 11% 30.28 in 10.0 mi East 9.2 mph - N/A   Clear
2:35 PM 55.4 °F - 1.4 °F 11% 30.28 in 10.0 mi ESE 9.2 mph - N/A   Clear
2:55 PM 53.6 °F - 1.4 °F 12% 30.27 in 10.0 mi East 12.7 mph - N/A   Clear
3:15 PM 53.6 °F - 1.4 °F 12% 30.27 in 10.0 mi East 10.4 mph - N/A   Clear
3:35 PM 53.6 °F - 1.4 °F 12% 30.26 in 10.0 mi East 11.5 mph - N/A   Clear
3:55 PM 55.4 °F - 1.4 °F 11% 30.25 in 10.0 mi East 12.7 mph - N/A   Clear
4:15 PM 53.6 °F - 1.4 °F 12% 30.25 in 10.0 mi ESE 10.4 mph - N/A   Clear
4:35 PM 50.0 °F - 1.4 °F 14% 30.26 in 10.0 mi ESE 10.4 mph - N/A   Clear
4:55 PM 50.0 °F - 1.4 °F 14% 30.26 in 10.0 mi East 9.2 mph - N/A   Clear
5:15 PM 48.2 °F - 1.4 °F 15% 30.26 in 10.0 mi East 9.2 mph - N/A   Clear
5:35 PM 46.4 °F 41.9 °F 1.4 °F 16% 30.26 in 10.0 mi ESE 9.2 mph - N/A   Clear
5:55 PM 46.4 °F - -0.4 °F 14% 30.25 in 10.0 mi North - - N/A   Clear
6:15 PM 39.2 °F 33.6 °F 1.4 °F 21% 30.25 in 10.0 mi ESE 8.1 mph - N/A   Clear
6:35 PM 42.8 °F 37.5 °F -0.4 °F 16% 30.25 in 10.0 mi ESE 9.2 mph - N/A   Clear
6:55 PM 37.4 °F 30.8 °F 1.4 °F 22% 30.25 in 10.0 mi SE 9.2 mph - N/A   Clear
7:15 PM 37.4 °F 30.3 °F 3.2 °F 24% 30.25 in 10.0 mi SE 10.4 mph - N/A   Clear
7:35 PM 35.6 °F 28.0 °F 3.2 °F 26% 30.26 in 10.0 mi SE 10.4 mph - N/A   Clear
7:55 PM 35.6 °F 28.6 °F 3.2 °F 26% 30.25 in 10.0 mi SE 9.2 mph - N/A   Clear
8:15 PM 35.6 °F - 3.2 °F 26% 30.26 in 10.0 mi Calm Calm - N/A   Clear
8:35 PM 32.0 °F - 5.0 °F 32% 30.26 in 10.0 mi Calm Calm - N/A   Clear
8:55 PM 35.6 °F - 3.2 °F 26% 30.27 in 10.0 mi Calm Calm - N/A   Clear
9:15 PM 32.0 °F 24.8 °F 5.0 °F 32% 30.26 in 10.0 mi East 8.1 mph - N/A   Clear
9:35 PM 32.0 °F - 5.0 °F 32% 30.26 in 10.0 mi Calm Calm - N/A   Clear
9:55 PM 32.0 °F 28.7 °F 5.0 °F 32% 30.26 in 10.0 mi East 3.5 mph - N/A   Clear
10:15 PM 32.0 °F - 5.0 °F 32% 30.26 in 10.0 mi Calm Calm - N/A   Clear
10:35 PM 30.2 °F - 5.0 °F 34% 30.25 in 10.0 mi Calm Calm - N/A   Clear
10:55 PM 32.0 °F 28.7 °F 5.0 °F 32% 30.24 in 10.0 mi SE 3.5 mph - N/A   Clear
11:15 PM 32.0 °F - 5.0 °F 32% 30.25 in 10.0 mi Calm Calm - N/A   Clear
11:35 PM 30.2 °F 24.3 °F 5.0 °F 34% 30.23 in 10.0 mi East 5.8 mph - N/A   Clear
11:55 PM 30.2 °F - 5.0 °F 34% 30.22 in 10.0 mi Calm Calm - N/A   Clear